Current weather by "City, St" or "zip code"  
 

Current Conditions: Pittsburgh, Pittsburgh International Airport, PA

Overcast


38.0 F

Last Updated on Feb 27 2021, 11:51 pm EST
Humidity: 86%
Wind Speed: N 0.0 mph
Barometer 30.19 in
Dewpoint: 34.0 F
Visibility: 10.00 mi
Precip: --
Heat Index: NA
Wind Chill: NA
Current conditions at:

Pittsburgh, Pittsburgh International Airport, PA (KPIT)

Lat: 40.50389 Lon: 80.26639

Local Radar Image active severe weather and emergency alerts image image weather storm and storm spotter reports image weather observation monitoring service image
Local
Radar
Active
Alerts
Storm Reports Obs
Monitoring

Sign-up For Email & Text Message Weather Alert Notification Services



Advertise Here

Observation History for Pittsburgh, Pittsburgh International Airport, PA


Time Wind
(mph)
Vis
(mi)
Weather Precip (in) Temperature (F) Relative
Humidity
Wind
Chill
(F)
Heat
Index
(F)
Pressure
Air Dwpt altimeter
(in)
sea level
(mb)
Rmks
11:51 pm EST N 0.0 10.00 Overcast -- 38.0 34.0 86% NA NA 30.19 1023.9
10:51 pm EST N 0.0 10.00 Mostly Cloudy -- 38.0 34.0 86% NA NA 30.22 1025.0
9:51 pm EST N 0.0 10.00 Mostly Cloudy -- 39.0 35.1 86% NA NA 30.21 1024.6
8:51 pm EST NW 3.5 10.00 Partly Cloudy -- 39.0 34.0 82% NA NA 30.21 1024.5
7:51 pm EST N 0.0 10.00 Partly Cloudy -- 43.0 36.0 76% NA NA 30.20 1024.3
6:51 pm EST SW 3.5 10.00 Mostly Cloudy -- 48.0 37.9 68% NA NA 30.20 1023.8
5:51 pm EST W 4.6 10.00 Mostly Cloudy -- 50.0 37.9 63% 48 NA 30.17 1023.0
4:51 pm EST W 4.6 10.00 Partly Cloudy -- 51.0 37.9 61% 50 NA 30.15 1022.2
3:51 pm EST W 8.1 10.00 Partly Cloudy -- 50.0 39.0 66% 47 NA 30.12 1021.1
2:51 pm EST W 11.5 10.00 Mostly Cloudy -- 50.0 41.0 71% 46 NA 30.09 1020.2
1:51 pm EST W 10.4 10.00 Overcast -- 49.0 42.1 77% 45 NA 30.07 1019.4
12:51 pm EST W 12.7 10.00 Overcast -- 48.0 42.1 80% 43 NA 30.06 1019.0
11:51 am EST W 6.9 10.00 Overcast -- 47.0 43.0 86% 44 NA 30.04 1018.4
10:51 am EST W 8.1 10.00 Overcast Trace 45.0 42.1 90% 41 NA 30.01 1017.6
9:51 am EST W 4.6 8.00 Light Rain 00.03 44.0 39.9 85% 41 NA 29.99 1016.9
8:51 am EST S 4.6 10.00 Overcast Trace 44.0 35.1 71% 41 NA 29.95 1015.6
7:51 am EST S 6.9 10.00 Light Rain Trace 42.0 34.0 73% 38 NA 29.94 1015.4
6:51 am EST SE 10.4 10.00 Overcast -- 42.0 33.1 71% 36 NA 29.93 1015.0
5:51 am EST 3.5 10.00 Overcast -- 41.0 33.1 73% NA NA 29.95 1015.7
4:51 am EST SE 8.1 10.00 Overcast -- 40.0 33.1 77% 35 NA 29.95 1015.4
3:51 am EST SE 8.1 10.00 Overcast -- 39.0 32.0 76% 33 NA 29.97 1016.3
2:51 am EST SE 6.9 10.00 Overcast -- 39.0 32.0 76% 34 NA 30.01 1017.9
1:51 am EST SE 9.2 10.00 Overcast -- 40.0 32.0 73% 34 NA 30.04 1018.7

Regional Weather Observation


Unknown Station (KPJC)

Fair
30.0 F

Pittsburgh, Pittsburgh International Airport, PA (KPIT)

Overcast
38.0 F

Wheeling, Wheeling Ohio County Airport, WV (KHLG)

Fair
43.0 F

Washington - Washington County Airport, PA (KAFJ)

Fair
35.0 F

New Castle, New Castle Municipal Airport, PA (KUCP)

Fog/Mist
31.0 F

Butler, Butler County Airport/K W Scholter Field, PA (KBTP)

Fair
32.0 F

Advertise Here


Advertise Here